^^
Your Local Weather - Clay, NY Station Historical Data
Daily Summary for June 30, 2017 Units:  English    Metric   Both
« Previous Day
Next Day »
Daily Weekly Monthly Yearly Custom
  High: Low: Average:
Temperature: 77.8 °F 66.1 °F 73.8 °F
Dew Point: 72.1 °F 62.7 °F 66.3 °F
Humidity: 93% 65% 78%
Wind Speed: 5.0mph 0.0mph 1.5mph
Wind Gust: 10.0mph - -
Wind- - SSW
Pressure: 29.87 in 29.78 in -
Precipitation: 0.97 in    
Historical Graphs
 
 
Tabular Data for June 30, 2017
Time Temperature Dew Point Pressure Wind Wind Speed Wind Gust Humidity Rainfall Rate (Hourly) solar
00:00 74.5 °F 63.2 °F 29.81 in South 3.0 mph 8.0 mph 68% 0.00 in 0 W/m2
00:06 74.5 °F 63.2 °F 29.81 in SW 3.0 mph 8.0 mph 68% 0.00 in 0 W/m2
00:12 74.8 °F 63.1 °F 29.81 in WSW 4.0 mph 5.0 mph 67% 0.00 in 0 W/m2
00:18 75.0 °F 63.3 °F 29.81 in South 4.0 mph 5.0 mph 67% 0.00 in 0 W/m2
00:26 75.3 °F 63.2 °F 29.81 in South 4.0 mph 5.0 mph 66% 0.00 in 0 W/m2
00:32 75.4 °F 63.2 °F 29.81 in South 4.0 mph 10.0 mph 66% 0.00 in 0 W/m2
00:38 75.6 °F 63.0 °F 29.81 in SW 5.0 mph 10.0 mph 65% 0.00 in 0 W/m2
00:44 75.7 °F 63.1 °F 29.81 in SSE 4.0 mph 5.0 mph 65% 0.00 in 0 W/m2
00:50 75.5 °F 62.9 °F 29.81 in SSW 3.0 mph 7.0 mph 65% 0.00 in 0 W/m2
00:56 75.6 °F 63.0 °F 29.81 in SSW 4.0 mph 7.0 mph 65% 0.00 in 0 W/m2
01:02 75.6 °F 63.0 °F 29.80 in South 4.0 mph 5.0 mph 65% 0.00 in 0 W/m2
01:08 75.5 °F 62.9 °F 29.81 in SSW 4.0 mph 5.0 mph 65% 0.00 in 0 W/m2
01:14 75.5 °F 62.9 °F 29.80 in South 4.0 mph 4.0 mph 65% 0.00 in 0 W/m2
01:20 75.5 °F 62.9 °F 29.80 in SW 3.0 mph 7.0 mph 65% 0.00 in 0 W/m2
01:26 75.7 °F 63.1 °F 29.80 in SSW 5.0 mph 9.0 mph 65% 0.00 in 0 W/m2
01:32 75.7 °F 63.1 °F 29.80 in SSW 4.0 mph 7.0 mph 65% 0.00 in 0 W/m2
01:38 75.6 °F 63.0 °F 29.80 in SW 4.0 mph 7.0 mph 65% 0.00 in 0 W/m2
01:44 75.5 °F 62.9 °F 29.80 in SW 4.0 mph 5.0 mph 65% 0.00 in 0 W/m2
01:50 75.4 °F 62.8 °F 29.80 in SSW 4.0 mph 4.0 mph 65% 0.00 in 0 W/m2
01:56 75.4 °F 62.8 °F 29.80 in South 4.0 mph 8.0 mph 65% 0.00 in 0 W/m2
02:02 75.5 °F 62.9 °F 29.80 in SSW 5.0 mph 5.0 mph 65% 0.00 in 0 W/m2
02:08 75.3 °F 62.7 °F 29.80 in SSW 4.0 mph 6.0 mph 65% 0.00 in 0 W/m2
02:14 75.4 °F 62.8 °F 29.80 in SSW 4.0 mph 4.0 mph 65% 0.00 in 0 W/m2
02:20 75.5 °F 62.9 °F 29.80 in WSW 4.0 mph 7.0 mph 65% 0.00 in 0 W/m2
02:26 75.6 °F 63.0 °F 29.80 in WSW 4.0 mph 7.0 mph 65% 0.00 in 0 W/m2
02:32 75.7 °F 63.1 °F 29.81 in WSW 4.0 mph 6.0 mph 65% 0.00 in 0 W/m2
02:38 75.7 °F 63.1 °F 29.81 in WSW 4.0 mph 6.0 mph 65% 0.00 in 0 W/m2
02:44 75.7 °F 63.1 °F 29.81 in SSW 4.0 mph 7.0 mph 65% 0.00 in 0 W/m2
02:50 75.6 °F 63.4 °F 29.81 in SW 4.0 mph 4.0 mph 66% 0.00 in 0 W/m2
02:56 75.4 °F 63.2 °F 29.81 in SW 4.0 mph 5.0 mph 66% 0.00 in 0 W/m2
03:02 75.3 °F 63.2 °F 29.81 in WSW 4.0 mph 5.0 mph 66% 0.00 in 0 W/m2
03:08 75.1 °F 63.4 °F 29.81 in WSW 4.0 mph 6.0 mph 67% 0.00 in 0 W/m2
03:14 75.1 °F 63.4 °F 29.80 in South 4.0 mph 4.0 mph 67% 0.00 in 0 W/m2
03:20 75.0 °F 63.3 °F 29.80 in WSW 4.0 mph 4.0 mph 67% 0.00 in 0 W/m2
03:26 75.0 °F 63.3 °F 29.80 in SSW 3.0 mph 5.0 mph 67% 0.00 in 0 W/m2
03:32 75.1 °F 63.4 °F 29.80 in SSW 4.0 mph 4.0 mph 67% 0.00 in 0 W/m2
03:38 75.1 °F 63.4 °F 29.80 in West 4.0 mph 8.0 mph 67% 0.00 in 0 W/m2
03:44 75.1 °F 63.4 °F 29.80 in SW 3.0 mph 4.0 mph 67% 0.00 in 0 W/m2
03:50 75.0 °F 63.3 °F 29.80 in WSW 3.0 mph 3.0 mph 67% 0.00 in 0 W/m2
03:56 74.8 °F 63.5 °F 29.80 in WSW 3.0 mph 4.0 mph 68% 0.00 in 0 W/m2
04:02 74.7 °F 63.4 °F 29.80 in SW 3.0 mph 3.0 mph 68% 0.00 in 0 W/m2
04:08 74.7 °F 63.4 °F 29.80 in West 3.0 mph 4.0 mph 68% 0.00 in 0 W/m2
04:14 74.7 °F 63.9 °F 29.80 in SW 3.0 mph 3.0 mph 69% 0.00 in 0 W/m2
04:26 74.5 °F 63.7 °F 29.80 in WSW 4.0 mph 4.0 mph 69% 0.00 in 0 W/m2
04:32 74.3 °F 63.5 °F 29.80 in WSW 3.0 mph 3.0 mph 69% 0.00 in 0 W/m2
04:38 74.0 °F 63.6 °F 29.81 in WSW 2.0 mph 3.0 mph 70% 0.00 in 0 W/m2
04:46 73.8 °F 63.4 °F 29.81 in SW 2.0 mph 6.0 mph 70% 0.00 in 0 W/m2
04:52 73.7 °F 63.7 °F 29.81 in SW 2.0 mph 2.0 mph 71% 0.00 in 0 W/m2
04:58 73.5 °F 63.5 °F 29.81 in WSW 1.0 mph 3.0 mph 71% 0.00 in 0 W/m2
05:04 73.4 °F 63.4 °F 29.81 in WSW 1.0 mph 3.0 mph 71% 0.00 in 0 W/m2
05:10 73.3 °F 63.7 °F 29.81 in WSW 1.0 mph 1.0 mph 72% 0.00 in 0 W/m2
05:16 73.0 °F 63.4 °F 29.81 in WSW 1.0 mph 1.0 mph 72% 0.00 in 0 W/m2
05:22 72.8 °F 63.6 °F 29.81 in WSW 1.0 mph 1.0 mph 73% 0.00 in 0 W/m2
05:28 72.6 °F 63.4 °F 29.82 in Calm   1.0 mph 73% 0.00 in 0 W/m2
05:34 72.4 °F 63.6 °F 29.82 in Calm   1.0 mph 74% 0.00 in 0 W/m2
05:40 72.2 °F 63.4 °F 29.82 in WSW 1.0 mph 1.0 mph 74% 0.00 in 5 W/m2
05:46 72.1 °F 63.4 °F 29.82 in Calm   3.0 mph 74% 0.00 in 9 W/m2
05:52 72.0 °F 63.6 °F 29.82 in WSW 1.0 mph 1.0 mph 75% 0.00 in 12 W/m2
05:58 71.8 °F 63.4 °F 29.82 in WSW 1.0 mph 1.0 mph 75% 0.00 in 16 W/m2
06:04 71.8 °F 63.4 °F 29.82 in SSW 1.0 mph 3.0 mph 75% 0.00 in 16 W/m2
06:10 71.8 °F 63.4 °F 29.82 in SSW 1.0 mph 1.0 mph 75% 0.00 in 18 W/m2
06:16 71.9 °F 63.5 °F 29.83 in SSW 1.0 mph 2.0 mph 75% 0.00 in 19 W/m2
06:22 71.8 °F 63.4 °F 29.83 in SSW 1.0 mph 1.0 mph 75% 0.00 in 26 W/m2
06:28 71.8 °F 63.4 °F 29.83 in Calm   1.0 mph 75% 0.00 in 44 W/m2
06:34 71.9 °F 63.5 °F 29.83 in SSW 1.0 mph 2.0 mph 75% 0.00 in 63 W/m2
06:40 72.3 °F 63.9 °F 29.83 in WSW 2.0 mph 2.0 mph 75% 0.00 in 105 W/m2
06:46 72.7 °F 63.9 °F 29.83 in SSE 2.0 mph 2.0 mph 74% 0.00 in 146 W/m2
06:52 73.1 °F 64.3 °F 29.83 in SSE 1.0 mph 1.0 mph 74% 0.00 in 120 W/m2
06:58 73.3 °F 64.5 °F 29.83 in Calm   1.0 mph 74% 0.00 in 86 W/m2
07:04 73.3 °F 64.5 °F 29.83 in SSW 1.0 mph 2.0 mph 74% 0.00 in 86 W/m2
07:10 73.3 °F 64.5 °F 29.83 in SSW 1.0 mph 1.0 mph 74% 0.00 in 84 W/m2
07:16 73.4 °F 64.2 °F 29.84 in SW 2.0 mph 2.0 mph 73% 0.00 in 91 W/m2
07:22 73.6 °F 64.4 °F 29.84 in SW 2.0 mph 2.0 mph 73% 0.00 in 137 W/m2
07:28 73.9 °F 64.7 °F 29.84 in SW 2.0 mph 4.0 mph 73% 0.00 in 246 W/m2
07:34 74.5 °F 65.3 °F 29.84 in SSE 2.0 mph 2.0 mph 73% 0.00 in 316 W/m2
07:40 75.1 °F 65.1 °F 29.85 in SSW 2.0 mph 2.0 mph 71% 0.00 in 179 W/m2
07:46 75.3 °F 65.2 °F 29.85 in SW 2.0 mph 2.0 mph 71% 0.00 in 86 W/m2
07:52 74.9 °F 64.9 °F 29.85 in SW 2.0 mph 3.0 mph 71% 0.00 in 98 W/m2
07:58 74.8 °F 64.8 °F 29.85 in SW 3.0 mph 5.0 mph 71% 0.00 in 160 W/m2
08:04 74.8 °F 65.2 °F 29.85 in SW 3.0 mph 3.0 mph 72% 0.00 in 207 W/m2
08:10 75.0 °F 65.0 °F 29.85 in SW 2.0 mph 2.0 mph 71% 0.00 in 156 W/m2
08:16 75.0 °F 65.0 °F 29.86 in SW 3.0 mph 3.0 mph 71% 0.00 in 79 W/m2
08:22 74.8 °F 65.2 °F 29.86 in WSW 2.0 mph 3.0 mph 72% 0.00 in 93 W/m2
08:28 74.6 °F 65.4 °F 29.86 in WSW 2.0 mph 3.0 mph 73% 0.00 in 95 W/m2
08:34 74.6 °F 65.4 °F 29.86 in Calm   2.0 mph 73% 0.00 in 200 W/m2
08:40 74.9 °F 66.1 °F 29.86 in WSW 1.0 mph 1.0 mph 74% 0.00 in 239 W/m2
08:46 75.3 °F 65.6 °F 29.86 in WSW 2.0 mph 3.0 mph 72% 0.00 in 193 W/m2
08:52 75.4 °F 65.7 °F 29.86 in SW 2.0 mph 3.0 mph 72% 0.00 in 185 W/m2
08:58 75.6 °F 65.9 °F 29.86 in West 2.0 mph 3.0 mph 72% 0.00 in 162 W/m2
09:04 75.5 °F 65.8 °F 29.86 in WSW 2.0 mph 3.0 mph 72% 0.00 in 102 W/m2
09:10 75.4 °F 65.7 °F 29.86 in WSW 3.0 mph 6.0 mph 72% 0.00 in 107 W/m2
09:16 75.2 °F 65.6 °F 29.86 in SSW 2.0 mph 6.0 mph 72% 0.00 in 102 W/m2
09:22 75.0 °F 65.4 °F 29.86 in West 3.0 mph 6.0 mph 72% 0.00 in 95 W/m2
09:28 74.8 °F 65.6 °F 29.87 in WSW 3.0 mph 6.0 mph 73% 0.00 in 90 W/m2
09:34 74.5 °F 65.3 °F 29.86 in WSW 3.0 mph 6.0 mph 73% 0.00 in 125 W/m2
09:40 74.3 °F 65.1 °F 29.86 in WSW 3.0 mph 3.0 mph 73% 0.00 in 139 W/m2
09:46 74.2 °F 65.4 °F 29.86 in WSW 2.0 mph 3.0 mph 74% 0.00 in 156 W/m2
09:52 74.3 °F 65.9 °F 29.86 in WSW 1.0 mph 1.0 mph 75% 0.00 in 172 W/m2
09:58 74.4 °F 66.3 °F 29.86 in Calm   1.0 mph 76% 0.00 in 204 W/m2
10:04 74.4 °F 66.0 °F 29.86 in SW 1.0 mph 2.0 mph 75% 0.00 in 218 W/m2
10:10 74.3 °F 66.2 °F 29.86 in SW 1.0 mph 1.0 mph 76% 0.00 in 227 W/m2
10:16 74.3 °F 66.6 °F 29.86 in WSW 1.0 mph 2.0 mph 77% 0.00 in 255 W/m2
10:22 74.3 °F 66.2 °F 29.86 in WSW 1.0 mph 1.0 mph 76% 0.00 in 288 W/m2
10:28 74.7 °F 66.6 °F 29.86 in WSW 1.0 mph 1.0 mph 76% 0.00 in 271 W/m2
10:34 74.8 °F 66.0 °F 29.86 in South 1.0 mph 3.0 mph 74% 0.00 in 334 W/m2
10:40 75.0 °F 66.1 °F 29.86 in WSW 2.0 mph 2.0 mph 74% 0.00 in 431 W/m2
10:46 75.3 °F 66.8 °F 29.87 in SE 2.0 mph 3.0 mph 75% 0.00 in 417 W/m2
10:52 75.8 °F 66.5 °F 29.86 in WSW 3.0 mph 6.0 mph 73% 0.00 in 352 W/m2
10:58 75.9 °F 66.6 °F 29.87 in SW 2.0 mph 6.0 mph 73% 0.00 in 301 W/m2
11:04 76.0 °F 66.7 °F 29.86 in SW 2.0 mph 2.0 mph 73% 0.00 in 360 W/m2
11:10 76.5 °F 66.8 °F 29.86 in WSW 1.0 mph 1.0 mph 72% 0.00 in 547 W/m2
11:16 76.9 °F 68.0 °F 29.86 in WSW 1.0 mph 3.0 mph 74% 0.00 in 485 W/m2
11:22 76.9 °F 66.8 °F 29.86 in SSW 2.0 mph 2.0 mph 71% 0.00 in 397 W/m2
11:28 76.8 °F 66.3 °F 29.86 in South 2.0 mph 4.0 mph 70% 0.00 in 281 W/m2
11:34 76.8 °F 67.5 °F 29.86 in SSW 1.0 mph 2.0 mph 73% 0.00 in 374 W/m2
11:40 77.3 °F 66.7 °F 29.86 in South 1.0 mph 3.0 mph 70% 0.00 in 624 W/m2
11:46 77.6 °F 66.2 °F 29.85 in WSW 2.0 mph 4.0 mph 68% 0.00 in 455 W/m2
11:52 77.5 °F 66.9 °F 29.85 in SSE 1.0 mph 3.0 mph 70% 0.00 in 388 W/m2
11:58 77.1 °F 67.0 °F 29.83 in SSE 1.0 mph 3.0 mph 71% 0.00 in 308 W/m2
12:04 77.6 °F 67.0 °F 29.84 in South 1.0 mph 3.0 mph 70% 0.00 in 954 W/m2
12:10 77.6 °F 66.6 °F 29.84 in SSE 2.0 mph 2.0 mph 69% 0.00 in 265 W/m2
12:16 77.1 °F 67.0 °F 29.83 in SSE 1.0 mph 3.0 mph 71% 0.00 in 137 W/m2
12:22 76.8 °F 67.1 °F 29.84 in SSE 1.0 mph 1.0 mph 72% 0.00 in 127 W/m2
12:30 76.6 °F 66.9 °F 29.84 in Calm     72% 0.00 in 37 W/m2
12:36 76.5 °F 68.0 °F 29.85 in Calm     75% 2.07 in 37 W/m2
12:42 75.1 °F 68.5 °F 29.83 in Calm   1.0 mph 80% 0.65 in 90 W/m2
12:48 73.9 °F 68.8 °F 29.83 in SSE 1.0 mph 2.0 mph 84% 0.11 in 77 W/m2
12:54 73.0 °F 68.2 °F 29.83 in SSE 1.0 mph 2.0 mph 85% 0.30 in 62 W/m2
13:00 72.3 °F 68.2 °F 29.83 in NNE 1.0 mph 3.0 mph 87% 1.27 in 120 W/m2
13:06 72.0 °F 68.2 °F 29.82 in NNE 1.0 mph 3.0 mph 88% 0.17 in 225 W/m2
13:12 71.7 °F 68.3 °F 29.83 in NNW 2.0 mph 2.0 mph 89% 0.06 in 350 W/m2
13:18 72.0 °F 68.9 °F 29.82 in North 1.0 mph 3.0 mph 90% 0.04 in 322 W/m2
13:24 72.2 °F 69.1 °F 29.82 in North 1.0 mph 1.0 mph 90% 0.00 in 255 W/m2
13:30 72.6 °F 69.2 °F 29.82 in Calm     89% 0.00 in 396 W/m2
13:36 73.1 °F 69.3 °F 29.82 in NNE 1.0 mph 3.0 mph 88% 0.00 in 383 W/m2
13:42 73.2 °F 69.1 °F 29.82 in North 1.0 mph 2.0 mph 87% 0.00 in 383 W/m2
13:48 73.4 °F 69.3 °F 29.82 in Calm   2.0 mph 87% 0.00 in 450 W/m2
13:54 74.4 °F 70.3 °F 29.82 in North 1.0 mph 2.0 mph 87% 0.00 in 809 W/m2
14:00 74.4 °F 69.2 °F 29.82 in NE 2.0 mph 2.0 mph 84% 0.00 in 1104 W/m2
14:06 74.1 °F 69.3 °F 29.81 in NE 2.0 mph 2.0 mph 85% 0.00 in 408 W/m2
14:12 75.7 °F 71.2 °F 29.81 in SE 1.0 mph 2.0 mph 86% 0.00 in 1002 W/m2
14:18 75.4 °F 70.2 °F 29.81 in SE 2.0 mph 3.0 mph 84% 0.00 in 659 W/m2
14:24 76.0 °F 70.1 °F 29.80 in SE 2.0 mph 4.0 mph 82% 0.00 in 682 W/m2
14:30 76.2 °F 70.3 °F 29.81 in SSE 2.0 mph 2.0 mph 82% 0.00 in 921 W/m2
14:36 77.7 °F 72.1 °F 29.80 in SE 2.0 mph 3.0 mph 83% 0.00 in 940 W/m2
14:42 77.8 °F 71.1 °F 29.80 in SE 1.0 mph 4.0 mph 80% 0.00 in 969 W/m2
14:48 77.8 °F 70.0 °F 29.80 in ENE 2.0 mph 4.0 mph 77% 0.00 in 888 W/m2
14:54 77.5 °F 70.1 °F 29.80 in SW 2.0 mph 2.0 mph 78% 0.00 in 357 W/m2
15:00 77.4 °F 70.4 °F 29.80 in SW 1.0 mph 1.0 mph 79% 0.00 in 207 W/m2
15:06 77.4 °F 70.4 °F 29.79 in South 1.0 mph 4.0 mph 79% 0.00 in 72 W/m2
15:12 76.9 °F 69.9 °F 29.78 in South 1.0 mph 2.0 mph 79% 0.00 in 62 W/m2
15:18 76.1 °F 70.2 °F 29.78 in South 1.0 mph 2.0 mph 82% 0.00 in 35 W/m2
15:24 75.4 °F 70.6 °F 29.79 in Calm     85% 0.10 in 28 W/m2
15:30 74.9 °F 70.1 °F 29.78 in ESE 1.0 mph 4.0 mph 85% 0.58 in 54 W/m2
15:36 74.3 °F 70.2 °F 29.78 in ESE 1.0 mph 4.0 mph 87% 0.16 in 33 W/m2
15:42 73.9 °F 70.1 °F 29.78 in ESE 1.0 mph 2.0 mph 88% 0.06 in 37 W/m2
15:48 73.3 °F 69.5 °F 29.79 in North 2.0 mph 4.0 mph 88% 0.83 in 9 W/m2
15:54 72.7 °F 69.3 °F 29.82 in SW 2.0 mph 3.0 mph 89% 2.41 in 14 W/m2
16:00 72.0 °F 68.6 °F 29.81 in SSW 3.0 mph 6.0 mph 89% 0.40 in 128 W/m2
16:06 71.5 °F 68.4 °F 29.80 in SW 3.0 mph 9.0 mph 90% 0.15 in 197 W/m2
16:12 71.4 °F 68.3 °F 29.80 in NW 4.0 mph 4.0 mph 90% 0.44 in 381 W/m2
16:18 72.6 °F 70.1 °F 29.81 in NW 2.0 mph 4.0 mph 92% 0.08 in 315 W/m2
16:24 73.7 °F 71.2 °F 29.81 in SSW 1.0 mph 1.0 mph 92% 0.05 in 496 W/m2
16:30 73.2 °F 70.4 °F 29.81 in NNW 1.0 mph 1.0 mph 91% 0.00 in 232 W/m2
16:36 73.8 °F 71.0 °F 29.81 in NNW 1.0 mph 3.0 mph 91% 0.00 in 341 W/m2
16:42 73.7 °F 70.3 °F 29.81 in WNW 2.0 mph 3.0 mph 89% 0.00 in 95 W/m2
16:48 73.9 °F 69.8 °F 29.80 in SW 1.0 mph 3.0 mph 87% 0.00 in 130 W/m2
16:54 73.9 °F 69.1 °F 29.80 in West 1.0 mph 2.0 mph 85% 0.00 in 158 W/m2
17:00 74.2 °F 69.7 °F 29.80 in WSW 1.0 mph 1.0 mph 86% 0.00 in 104 W/m2
17:06 74.4 °F 68.9 °F 29.80 in SW 2.0 mph 4.0 mph 83% 0.00 in 88 W/m2
17:12 74.4 °F 69.2 °F 29.80 in West 2.0 mph 4.0 mph 84% 0.00 in 62 W/m2
17:18 74.7 °F 69.2 °F 29.80 in SW 1.0 mph 4.0 mph 83% 0.00 in 67 W/m2
17:24 75.0 °F 69.1 °F 29.80 in SW 1.0 mph 2.0 mph 82% 0.00 in 76 W/m2
17:30 75.1 °F 68.9 °F 29.80 in West 1.0 mph 1.0 mph 81% 0.00 in 218 W/m2
17:36 75.2 °F 69.3 °F 29.80 in West 1.0 mph 1.0 mph 82% 0.00 in 90 W/m2
17:42 75.4 °F 69.5 °F 29.80 in Calm   1.0 mph 82% 0.00 in 121 W/m2
17:48 75.5 °F 68.9 °F 29.80 in NW 1.0 mph 1.0 mph 80% 0.00 in 156 W/m2
17:54 75.6 °F 69.4 °F 29.80 in NW 1.0 mph 1.0 mph 81% 0.00 in 195 W/m2
18:00 75.6 °F 68.6 °F 29.80 in West 1.0 mph 2.0 mph 79% 0.00 in 135 W/m2
18:06 75.4 °F 68.4 °F 29.80 in NW 1.0 mph 2.0 mph 79% 0.00 in 137 W/m2
18:12 75.6 °F 69.4 °F 29.80 in Calm   1.0 mph 81% 0.00 in 171 W/m2
18:18 75.7 °F 69.1 °F 29.81 in Calm   1.0 mph 80% 0.00 in 146 W/m2
18:24 75.8 °F 69.2 °F 29.80 in Calm     80% 0.00 in 139 W/m2
18:30 76.0 °F 69.0 °F 29.80 in Calm     79% 0.00 in 56 W/m2
18:36 76.0 °F 69.7 °F 29.80 in Calm     81% 0.00 in 69 W/m2
18:42 75.9 °F 68.9 °F 29.80 in Calm     79% 0.00 in 51 W/m2
18:48 75.7 °F 68.7 °F 29.80 in NW 1.0 mph 3.0 mph 79% 0.00 in 56 W/m2
18:54 75.6 °F 68.6 °F 29.80 in NW 1.0 mph 1.0 mph 79% 0.00 in 63 W/m2
19:00 75.6 °F 69.0 °F 29.80 in NW 1.0 mph 1.0 mph 80% 0.00 in 102 W/m2
19:06 75.6 °F 68.6 °F 29.80 in Calm   2.0 mph 79% 0.00 in 146 W/m2
19:12 75.9 °F 68.9 °F 29.81 in South 1.0 mph 1.0 mph 79% 0.00 in 118 W/m2
19:18 76.0 °F 69.0 °F 29.81 in South 1.0 mph 2.0 mph 79% 0.00 in 111 W/m2
19:24 76.2 °F 68.8 °F 29.81 in South 1.0 mph 2.0 mph 78% 0.00 in 88 W/m2
19:30 76.1 °F 68.7 °F 29.81 in South 1.0 mph 1.0 mph 78% 0.00 in 69 W/m2
19:36 76.0 °F 68.6 °F 29.81 in Calm   1.0 mph 78% 0.00 in 37 W/m2
19:42 75.9 °F 68.9 °F 29.81 in Calm     79% 0.00 in 44 W/m2
19:48 75.7 °F 68.7 °F 29.81 in Calm     79% 0.00 in 40 W/m2
19:54 75.9 °F 70.0 °F 29.82 in Calm     82% 0.00 in 44 W/m2
20:00 75.5 °F 70.0 °F 29.82 in Calm     83% 0.00 in 35 W/m2
20:06 74.7 °F 69.9 °F 29.82 in Calm     85% 0.00 in 21 W/m2
20:12 74.2 °F 70.1 °F 29.82 in Calm     87% 0.00 in 16 W/m2
20:18 73.6 °F 69.5 °F 29.83 in Calm     87% 0.00 in 11 W/m2
20:24 73.2 °F 69.4 °F 29.83 in Calm     88% 0.00 in 9 W/m2
20:30 72.7 °F 68.9 °F 29.83 in Calm     88% 0.00 in 5 W/m2
20:36 72.3 °F 68.9 °F 29.83 in Calm     89% 0.00 in 0 W/m2
20:42 71.9 °F 68.5 °F 29.83 in Calm     89% 0.00 in 0 W/m2
20:48 71.4 °F 68.3 °F 29.83 in Calm     90% 0.00 in 0 W/m2
20:54 70.9 °F 67.8 °F 29.83 in Calm     90% 0.00 in 0 W/m2
21:00 70.5 °F 67.4 °F 29.84 in Calm     90% 0.00 in 0 W/m2
21:06 70.3 °F 67.2 °F 29.84 in Calm     90% 0.00 in 0 W/m2
21:12 70.0 °F 67.3 °F 29.84 in Calm     91% 0.00 in 0 W/m2
21:18 69.7 °F 67.0 °F 29.84 in Calm     91% 0.00 in 0 W/m2
21:24 69.4 °F 66.7 °F 29.84 in Calm     91% 0.00 in 0 W/m2
21:30 69.1 °F 66.4 °F 29.84 in Calm     91% 0.00 in 0 W/m2
21:36 68.9 °F 66.5 °F 29.84 in Calm     92% 0.00 in 0 W/m2
21:42 68.8 °F 66.4 °F 29.85 in Calm     92% 0.00 in 0 W/m2
21:48 68.6 °F 66.2 °F 29.86 in Calm     92% 0.00 in 0 W/m2
21:56 68.3 °F 65.9 °F 29.85 in Calm     92% 0.00 in 0 W/m2
22:02 68.2 °F 65.8 °F 29.86 in Calm     92% 0.00 in 0 W/m2
22:08 68.0 °F 65.6 °F 29.86 in Calm     92% 0.00 in 0 W/m2
22:14 68.0 °F 65.9 °F 29.86 in Calm     93% 0.00 in 0 W/m2
22:20 67.9 °F 65.5 °F 29.86 in Calm     92% 0.00 in 0 W/m2
22:26 67.6 °F 65.5 °F 29.85 in Calm     93% 0.00 in 0 W/m2
22:32 67.4 °F 65.3 °F 29.86 in Calm     93% 0.00 in 0 W/m2
22:38 67.2 °F 65.1 °F 29.85 in Calm     93% 0.00 in 0 W/m2
22:44 67.2 °F 65.1 °F 29.85 in Calm     93% 0.00 in 0 W/m2
22:50 67.0 °F 64.9 °F 29.85 in Calm     93% 0.00 in 0 W/m2
22:56 66.9 °F 64.8 °F 29.85 in Calm     93% 0.00 in 0 W/m2
23:02 66.8 °F 64.7 °F 29.85 in Calm     93% 0.00 in 0 W/m2
23:08 66.6 °F 64.5 °F 29.85 in Calm     93% 0.00 in 0 W/m2
23:14 66.6 °F 64.5 °F 29.85 in Calm     93% 0.00 in 0 W/m2
23:20 66.5 °F 64.4 °F 29.85 in Calm     93% 0.00 in 0 W/m2
23:26 66.4 °F 64.3 °F 29.85 in Calm     93% 0.00 in 0 W/m2
23:32 66.5 °F 64.4 °F 29.85 in Calm     93% 0.00 in 0 W/m2
23:38 66.5 °F 64.4 °F 29.85 in Calm     93% 0.00 in 0 W/m2
23:44 66.3 °F 64.2 °F 29.85 in Calm     93% 0.00 in 0 W/m2
23:50 66.2 °F 64.1 °F 29.85 in Calm     93% 0.00 in 0 W/m2
23:56 66.1 °F 64.0 °F 29.85 in Calm     93% 0.00 in 0 W/m2
Country Meadow, Clay, NY, USA
Compliments of Weather Underground - 2 mb